Location: Newark
(49.8969°N, 3.3422°E)
Time: 01:57:05
(UTC+00:00)

Explorer 7 - Pass Details

Date: 25 January 2020
Orbit: 485 x 679 km, 50.3° (Epoch: 21 February)

Event Time Altitude Azimuth Distance (km) Brightness Sun altitude
Rises 00:10:28 0° 252° (WSW) 2,549 - -59.2°
Reaches altitude 10° 00:12:38 10° 251° (WSW) 1,666 - -59.1°
Maximum altitude 00:16:22 77° 166° (SSE) 504 - -59.0°
Drops below altitude 10° 00:20:11 10° 80° (E) 1,693 - -58.9°
Sets 00:22:23 0° 79° (ENE) 2,595 - -58.9°
